Regional Weather Roundup
Issued by NWS

Home | Current Version | Previous Version | Text Only | Print | Product List | Glossary On
Versions: 1 2 3 4 5 6 7 8 9 10 11 12 13 14 15 16 17 18 19 20 21 22 23 24 25 26 27 28 29 30 31 32 33 34 35 36 37 38 39 40 41 42 43 44 45 46 47 48 49 50
000
ASUS42 KTBW 251810
RWRFL
FLORIDA REGIONAL WEATHER ROUNDUP
NATIONAL WEATHER SERVICE TAMPA BAY RUSKIN FL
100 PM EST SUN JAN 25 2015

NOTE: "FAIR" INDICATES FEW OR NO CLOUDS BELOW 12,000 FEET WITH NO
SIGNIFICANT WEATHER AND/OR OBSTRUCTIONS TO VISIBILITY.


FLZ001>010-012>015-112-114-115-251900-
PANHANDLE FLORIDA

CITY           SKY/WX    TMP DP  RH WIND       PRES   REMARKS
PENSACOLA      SUNNY     61  44  53 SW15G22   29.97F
PENSACOLA NAS  MOSUNNY   60  45  57 SW15      29.98F
MILTON NAS     SUNNY     60  42  51 S15       29.96F
CRESTVIEW      SUNNY     62  40  44 SW17G24   29.98F
VALPARAISO     MOSUNNY   62  46  56 W10G17    29.97F
MARY ESTHER    SUNNY     60  45  56 SW13G20   29.97F
TRI COUNTY     FAIR      60  42  51 S13       29.97F
PANAMA CITY    FAIR      59  47  64 SE13      29.99F
TYNDALL AFB    SUNNY     58  47  66 S10       30.01F
APALACHICOLA   SUNNY     60  37  42 S9        30.02F

STATION/POSITION SKY/WX   TEMP    WIND        PRES    WAVE   SWELL
                          AIR SEA DIR/SP/G            HT/PER HT/PER
                          (F)     (DEG/KT/KT) (MB)    (FT/S) (FT/S)
30.1N   87.6W              58 62  240/ 14/ 17 1015.1F   2/ 6   2/ 7
29.2N   88.2W              60 71  250/ 14/ 17 1016.6F   3/ 7   2/ 7
28.7N   86.0W              63 70  260/ 12/ 17 1017.2F   3/ 8   2/ 8
PANAMA CITY BEAC           56 61  140/ 11/ 14 1015.7F
CAPE SAN BLAS    NOT AVBL
TOWER C                    55     150/  7/  8 1016.8F
28.5N   84.5W              61 69  180/  4/  6 1017.5F   4/ 7   3/ 7

$$
FLZ011-016>038-118-127-128-134-139-239-251900-
NORTH FLORIDA

CITY           SKY/WX    TMP DP  RH WIND       PRES   REMARKS
MARIANNA       SUNNY     61  39  44 SW13      29.97F
TALLAHASSEE    MOSUNNY   61  35  37 W8        30.00F
PERRY          SUNNY     58  33  37 SW5       30.03F
CROSS CITY       N/A     61  35  37 W10       30.04F
LAKE CITY      FAIR      57  32  38 SW8       30.02F
GAINESVILLE    SUNNY     58  35  42 SW7       30.03F
MAYPORT NAS    SUNNY     58  32  37 VRB6      30.02F
JACKSONVILLE   MOSUNNY   58  32  37 SW8       30.01F
JAX NAS        MOSUNNY   58  34  40 S7        30.03F
JAX CRAIG      SUNNY     58  32  37 SW8       30.02F
JAX CECIL      SUNNY     59  32  36 SW10      30.04F
FERNANDINA BEA FAIR      63  34  34 SW6       30.00F
ST AUGUSTINE   SUNNY     59  32  36 W6        30.02F

STATION/POSITION SKY/WX   TEMP    WIND        PRES    WAVE   SWELL
                          AIR SEA DIR/SP/G            HT/PER HT/PER
                          (F)     (DEG/KT/KT) (MB)    (FT/S) (FT/S)
SHELL POINT                54     140/  5/  6   N/A
KEATON BEACH               52     200/  4/  5 1017.2F
CEDAR KEY                  52     120/  4/  5 1018.8F
FERNANDINA                 55 57  210/  1/  3 1015.8F
30.7N   81.3W                 59                N/A     1/10
MAYPORT                    56 58  270/  1/  2   N/A
31.4N   80.9W              50 56  250/  4/  4 1015.8F   1/11
ST AUGUSTINE               53     100/  5/  6 1017.0F

$$
FLZ040-043>046-052-053-057-058-063-144-251900-
INTERIOR CENTRAL FLORIDA

CITY           SKY/WX    TMP DP  RH WIND       PRES   REMARKS
OCALA          SUNNY     59  36  41 NW7       30.04F
THE VILLAGES     N/A     61  34  36 VRB6      29.94F
LEESBURG       SUNNY     59  32  36 VRB5      30.04F
SANFORD        SUNNY     60  34  37 SW6       30.04F
ORLANDO EXEC   SUNNY     59  33  37 VRB3      30.04F
ORLANDO INTL   MOSUNNY   60  32  34 VRB5      30.05F
KISSIMMEE      SUNNY     61  34  36 NW7       30.06F
WINTER HAVEN   SUNNY     62  35  36 N10       30.06F
LAKELAND       SUNNY     61  37  41 W9        30.06F
BARTOW         SUNNY     57  34  41 NW6       30.06F
OKEECHOBEE     SUNNY     61  36  39 W3        30.06F

$$
FLZ041-047-054-059-064-141-147-251900-
EAST CENTRAL FLORIDA

CITY           SKY/WX    TMP DP  RH WIND       PRES   REMARKS
ORMOND BEACH   SUNNY     57  34  41 CALM      30.03F
DAYTONA BEACH  MOSUNNY   60  34  37 VRB5      30.03F
DELAND         CLEAR    N/A N/A N/A SW7       30.03F
NEW SMYRNA BEA SUNNY     61  36  39 CALM      30.05F
JFK SPACE CTR  SUNNY     60  32  34 VRB6      30.03F
TITUSVILLE     SUNNY     61  36  39 VRB5      30.04F
CAPE CANAVERAL SUNNY     60  36  40 VRB5      30.03F
PATRICK AFB    SUNNY     60  23  24 NW3       30.04F
MELBOURNE      SUNNY     62  31  31 CALM      30.04F
VERO BEACH     SUNNY     63  30  28 VRB7      30.04F
FT PIERCE      SUNNY     63  32  31 MISG      30.04F
STUART         MOSUNNY   61  30  31 NW5       30.06F

STATION/POSITION SKY/WX   TEMP    WIND        PRES    WAVE   SWELL
                          AIR SEA DIR/SP/G            HT/PER HT/PER
                          (F)     (DEG/KT/KT) (MB)    (FT/S) (FT/S)
28.5N   80.2W              58 71  270/  4/  6 1017.6F
28.9N   78.5W              65 76  270/  6/  8 1016.0F   5/ 7   5/ 7
TRIDENT PIER               60 65  180/  3/  5 1017.1F
28.4N   80.5W                 65                N/A     1/ 9
27.6N   80.2W                 73                N/A     3/ 6

$$
FLZ050-056-061-142-242-148-248-149-249-151-251-155-255-
160-260-251900-
WEST CENTRAL FLORIDA

CITY           SKY/WX    TMP DP  RH WIND       PRES   REMARKS
CRYSTAL RIVER  FAIR      59  37  44 N5        30.04F
INVERNESS      FAIR      61  36  39 NW5       30.04F
BROOKSVILLE    SUNNY     62  41  46 VRB6      30.05F
ZEPHYRHILLS    FAIR      61  36  39 CALM      30.06F
CLEARWATER     SUNNY     60  43  53 NE7       30.05F
TAMPA INTL     PTSUNNY   60  42  51 SW8       30.06F
TAMPA EXEC     SUNNY     63  41  45 CALM      30.06F
PLANT CITY       N/A    N/A N/A N/A MISG        N/A
MACDILL AFB    SUNNY     61  45  56 VRB3      30.06F
PETER O KNIGHT SUNNY     63  45  51 S6        30.06F
ST PETERSBURG  SUNNY     58  43  57 SE8       30.04F
SARASOTA       SUNNY     62  45  53 VRB3      30.03F
VENICE         FAIR      63  48  59 W5        30.06F

STATION/POSITION SKY/WX   TEMP    WIND        PRES    WAVE   SWELL
                          AIR SEA DIR/SP/G            HT/PER HT/PER
                          (F)     (DEG/KT/KT) (MB)    (FT/S) (FT/S)
CEDAR KEY                  52     120/  4/  5 1018.8F
28.5N   84.5W              61 69  180/  4/  6 1017.5F   4/ 7   3/ 7
27.3N   84.3W                 73                N/A     5/10   2/11
CLEARWATER BEACH           58 63  270/  3/  4 1017.6F
MIDDLE TAMPA BAY           57      CALM  /  2 1018.2F
VENICE                     62 66  300/  4/  5 1017.3F

$$
FLZ066-069-070-075>078-162-262-165-265-251900-
SOUTHWEST FLORIDA AND KEYS

CITY           SKY/WX    TMP DP  RH WIND       PRES   REMARKS
PUNTA GORDA    SUNNY     62  45  53 W5        30.07F
FT MYERS       SUNNY     64  46  52 CALM      30.05F
SOUTHWEST INTL SUNNY     64  46  52 N6        30.05F
NAPLES         SUNNY     66  47  50 NW7       30.05F
MARCO ISLAND   CLEAR     66  46  48 NW6       30.05F
IMMOKALEE      CLEAR    N/A N/A N/A N5        30.07F
MARATHON       SUNNY     67  54  63 N10       30.07F
KEY WEST NAS   MOSUNNY   67  55  65 N10       30.07F
KEY WEST INTL  SUNNY     67  57  70 N9        30.07F

STATION/POSITION SKY/WX   TEMP    WIND        PRES    WAVE   SWELL
                          AIR SEA DIR/SP/G            HT/PER HT/PER
                          (F)     (DEG/KT/KT) (MB)    (FT/S) (FT/S)
VENICE                     62 66  300/  4/  5 1017.3F
NAPLES                     61 76  340/  7/ 11 1018.3F
26.0N   85.6W              67 73  310/  4/  8 1017.5F   5/ 9   5/ 9
DRY TORTUGAS               67     360/  9/ 12 1018.9F
NW FL BAY                  62      10/  8/ 11 1019.6S
SAND KEY                   64      20/  9/ 12 1018.3F
SOMBRERO KEY               63     360/ 13/ 15 1018.7F
LONG KEY                   61 70  350/ 10/ 12 1020.0R
MOLASSES REEF              62 74  360/  9/ 10 1017.5F

$$
FLZ067-068-071>074-168-172>174-251900-
SOUTHEAST FLORIDA

CITY           SKY/WX    TMP DP  RH WIND       PRES   REMARKS
W PALM BEACH   MOSUNNY   64  37  36 CALM      30.04F
FT LAUDER-EXEC SUNNY     64  33  31 CALM      30.06F
FT LAUDERDALE  MOSUNNY   63  37  38 W8        30.06F
POMPANO BEACH  SUNNY     67  33  28 W10       30.07F
PEMBROKE PINES SUNNY     65  38  36 W9        30.07F
OPA LOCKA      SUNNY     64  38  38 NW8       30.06F
MIAMI          MOSUNNY   64  41  42 VRB7G17   30.07F
WEST KENDALL   SUNNY     65  45  48 N10       30.06F
HOMESTEAD      SUNNY     65  46  49 N8        30.06F

STATION/POSITION SKY/WX   TEMP    WIND        PRES    WAVE   SWELL
                          AIR SEA DIR/SP/G            HT/PER HT/PER
                          (F)     (DEG/KT/KT) (MB)    (FT/S) (FT/S)
PORT EVERGLADES            63     280/  5/ 10 1017.8
VIRGINIA KEY               63 71  320/  3/  6 1018.5F



USA.gov is the U.S. government's official web portal to all federal, state and local government web resources and services.